Theta_e
301 304 305 306 308 308 308 308 309 310 311 311 311 312 311 309 309 307 307 306 306 303
296 298 298 299 300 301 302 303 303 304 303 303 303 303 302 302 301 300 301 299 299 298
295 295 294 295 295 296 297 299 299 299 299 300 299 300 300 298 297 295 295 293 292 293
293 293 292 292 291 292 293 294 295 295 296 296 295 296 293 292 291 290 289 289 288 288
290 290 289 289 289 290 289 290 291 291 291 291 291 290 289 288 288 287 287 287 287 286
288 287 286 286 287 288 288 286 287 287 287 287 287 287 287 286 286 285 284 285 285 285
286 286 286 286 286 286 286 286 286 285 285 285 285 285 285 285 285 284 285 285 285 284
285 286 285 285 285 285 285 286 286 286 285 286 285 285 285 285 284 283 283 283 284 284
284 284 284 284 284 285 285 285 285 285 286 285 284 285 284 284 282 282 281 280 282 282
281 281 281 282 283 283 283 284 284 285 285 285 284 284 283 283 282 282 281 280 279 279
281 281 281 281 281 282 282 282 282 283 283 283 283 283 282 282 281 281 281 281 281 280
280 280 280 280 280 281 281 281 281 281 281 281 281 282 281 281 280 279 279 280 281 281
279 280 279 279 279 279 280 279 280 279 281 281 281 281 281 280 279 278 278 279 280 280
279 278 279 278 278 279 278 278 278 277 278 279 280 281 281 280 279 278 278 277 278 279
Wind_Speed
8 5 4 6 4 4 4 4 4 5 5 6 5 5 5 4 4 5 5 7 6 4
8 8 7 7 6 4 5 4 5 6 6 6 6 6 6 5 6 6 6 7 8 6
8 8 7 7 7 7 6 5 6 7 7 7 8 7 7 6 8 9 6 5 9 7
8 8 8 8 7 7 7 7 7 8 8 8 9 9 9 11 8 10 9 8 8 9
8 8 9 9 8 8 8 8 9 8 10 9 10 10 11 11 9 9 9 9 9 10
8 9 9 9 8 8 9 10 9 9 10 10 10 11 12 12 11 11 10 10 10 9
8 8 8 8 9 9 8 10 10 10 10 9 10 11 11 11 11 11 11 11 11 10
7 7 8 8 8 9 10 10 10 10 10 10 9 7 10 10 10 10 11 11 11 12
7 7 8 8 8 9 10 10 10 10 10 11 8 13 12 10 9 9 9 9 9 8
6 7 8 8 9 9 9 9 10 10 10 11 10 12 12 11 8 8 8 7 6 6
7 7 7 8 8 8 8 8 8 8 9 9 9 12 12 11 9 8 8 7 7 6
5 7 7 8 7 7 7 7 7 7 8 8 8 9 8 7 6 7 7 6 6 6
5 5 6 6 6 5 6 6 5 7 7 6 6 6 7 5 4 5 4 4 5 5
6 6 6 5 4 5 5 6 6 6 4 5 4 4 4 3 2 3 3 2 3 2
Wind_Direction
38 49 50 39 45 52 72 68 58 66 60 55 55 53 55 38 61 73 51 63 57 70
43 46 50 48 50 52 56 73 71 72 74 63 62 66 70 80 76 69 74 74 67 42
58 55 53 52 55 54 53 65 82 81 79 77 71 77 84 76 75 77 60 52 77 79
55 63 63 61 52 56 58 56 72 76 78 77 77 75 82 79 73 76 73 63 67 69
66 67 69 65 62 56 67 64 64 70 77 73 78 78 79 79 72 77 77 70 68 60
69 72 71 69 67 67 72 67 68 70 75 79 76 82 81 84 85 79 72 68 65 58
60 66 76 79 76 72 72 78 75 75 81 79 81 83 90 90 86 81 76 71 68 62
66 71 74 72 76 78 76 78 80 82 79 81 81 84 92 92 93 91 84 76 71 66
88 82 78 80 76 77 79 82 86 84 86 82 78 84 89 97 96 94 92 88 84 74
86 84 82 83 84 78 78 84 86 89 91 91 92 93 92 90 91 90 89 91 90 83
99 92 86 88 88 89 88 84 85 86 91 92 89 94 92 88 90 88 84 83 83 83
100 104 103 99 98 93 95 91 87 85 90 96 97 101 98 99 98 101 92 82 75 81
112 114 112 112 108 98 95 94 89 79 74 66 100 104 107 97 102 109 110 99 77 70
140 134 133 123 115 116 112 108 98 94 74 68 52 96 94 96 128 147 141 136 126 78